Wind_Speed
16 20 26 27 32 26 35 33 35 32 35 34 33 33 39 43 44 46 46 49 49 53 50 44 44 49 48 43 42 42 44 49 46 47 52 58 52 53 54 52 51 48 46
19 22 25 26 40 30 34 32 34 31 35 35 36 37 41 44 46 43 50 50 51 46 41 43 45 49 52 52 52 53 49 52 55 54 51 54 56 58 56 53 53 55 51
19 22 25 28 31 31 32 30 37 37 37 39 41 41 43 46 49 44 45 49 41 38 49 46 50 53 56 54 53 52 52 55 59 56 52 51 41 45 49 50 50 54 56
22 24 27 28 30 32 33 32 38 41 42 43 44 44 49 49 49 42 45 45 39 49 51 54 53 58 54 56 57 60 59 54 53 53 48 25 26 34 35 41 46 50 55
21 24 28 31 30 33 38 39 41 45 46 46 46 47 50 49 45 50 46 44 48 50 55 55 56 56 54 57 60 59 54 49 51 44 28 29 28 24 25 32 39 42 46
23 25 30 32 32 35 40 43 45 49 47 47 47 48 48 46 46 49 47 48 50 52 58 53 53 54 51 51 55 54 58 54 40 30 26 25 31 26 24 27 31 31 34
30 28 33 36 36 37 42 44 48 51 50 49 48 47 46 49 48 49 49 49 51 55 54 51 55 51 50 46 51 53 52 44 36 32 30 31 23 29 27 23 25 31 32
34 31 33 37 39 42 45 49 50 54 52 49 47 47 47 47 48 49 49 50 52 51 50 51 44 46 42 46 52 49 47 34 25 28 27 32 30 19 21 19 18 23 21
39 36 38 40 44 45 48 50 53 51 47 47 47 45 46 47 48 49 49 50 47 48 48 41 37 39 43 47 49 47 34 24 28 27 31 24 17 16 16 12 15 13 15
46 46 48 44 46 46 47 47 45 45 44 44 45 43 46 47 47 49 50 47 47 45 36 38 34 40 42 44 48 42 25 25 25 22 23 15 16 17 13 14 5 5 7
52 52 49 48 46 45 43 43 41 42 43 44 44 45 46 48 48 50 47 43 46 34 34 34 35 35 39 44 42 39 21 17 15 17 19 14 16 15 10 5 2 1 1
59 63 35 43 47 40 40 40 41 42 44 43 44 46 47 47 48 45 43 44 33 31 35 33 29 32 39 37 31 28 23 17 11 14 9 9 12 10 11 7 4 2 2
64 46 35 41 42 42 43 42 41 43 43 43 45 46 47 47 43 43 39 33 31 31 31 27 27 30 30 23 19 23 27 18 8 6 6 9 2 5 4 4 2 2 5
53 47 38 42 48 50 51 46 42 40 40 41 43 42 43 42 43 41 32 27 29 31 26 28 24 27 28 17 19 21 25 25 22 11 7 3 4 5 1 8 6 5 12
42 42 44 48 51 51 45 41 38 38 39 40 40 39 37 39 37 31 28 25 25 24 23 25 24 23 24 20 16 25 20 22 26 25 11 6 6 3 4 8 9 6 5
42 44 43 47 42 40 38 38 39 41 39 38 39 34 34 31 31 29 24 19 20 19 21 19 18 17 16 15 18 22 24 14 23 23 24 24 11 2 5 5 16 7 2
39 42 44 41 40 40 39 39 39 37 36 38 32 31 29 28 27 24 22 18 16 15 17 17 20 11 15 10 15 17 19 21 15 14 17 20 19 25 27 11 7 4 8
40 38 40 40 40 40 39 36 34 36 36 31 31 28 27 29 23 20 19 18 18 18 16 14 15 6 11 13 13 16 16 15 14 12 12 14 16 17 18 18 23 22 21
37 40 41 42 40 41 35 32 33 34 30 29 28 29 29 26 25 22 25 22 17 15 14 14 14 13 6 10 14 14 15 15 16 15 12 9 9 10 9 11 12 11 13
42 44 44 40 37 34 32 33 34 31 28 28 29 29 27 26 22 19 18 9 12 14 16 14 12 12 13 12 12 14 12 12 14 16 15 13 11 10 9 8 7 7 7
40 38 36 35 33 32 32 32 30 29 28 27 27 26 24 21 19 17 12 11 15 14 15 16 14 13 11 13 13 13 11 12 14 16 17 16 14 10 9 8 8 7 7
34 34 33 31 31 32 29 27 28 27 25 22 23 22 24 23 16 12 12 17 15 16 18 18 15 13 13 13 13 13 12 12 13 13 14 13 13 12 11 11 11 11 10
30 30 30 30 28 26 26 26 25 23 22 22 22 25 20 15 14 15 16 19 17 18 16 13 12 13 12 12 13 14 15 15 16 16 15 15 15 14 13 13 14 14 14
26 27 26 25 24 24 23 22 22 21 20 19 18 15 19 9 10 11 14 15 17 15 13 13 15 17 17 17 17 18 18 19 20 20 20 19 18 17 15 15 16 16 16
24 24 22 22 22 20 19 20 20 21 17 15 11 8 11 14 13 14 15 15 14 15 17 19 19 20 20 21 20 20 20 19 19 19 19 20 19 18 17 17 18 19 19
21 21 22 20 17 16 17 15 12 10 11 12 11 12 13 15 16 16 16 18 19 19 19 20 20 21 21 20 20 20 19 19 18 17 16 16 15 16 16 17 18 20 21
Wind_Direction
305 302 303 307 303 317 321 318 320 335 332 331 331 326 317 315 317 319 317 321 320 319 317 317 319 317 312 307 306 305 301 305 296 294 289 286 284 277 270 263 253 258 254
299 308 317 317 316 320 321 329 331 321 319 320 324 323 317 315 319 316 318 323 320 315 319 319 317 314 314 313 312 311 310 307 304 301 294 292 284 281 274 263 255 249 251
306 320 323 318 332 299 321 325 331 327 326 324 325 319 317 317 322 324 324 322 316 318 321 316 315 315 314 315 315 315 314 312 308 304 304 297 284 273 267 261 254 246 241
293 306 321 319 317 325 329 325 329 327 327 326 325 321 319 321 322 324 322 322 309 311 317 318 316 315 317 315 314 311 314 312 308 307 307 294 280 271 265 259 249 244 239
289 301 311 322 316 320 326 328 328 330 328 326 325 320 319 320 322 320 319 311 312 314 315 315 315 317 317 317 318 318 316 316 311 309 307 317 294 296 272 263 254 244 236
308 300 312 321 319 315 316 322 325 328 326 323 320 320 319 317 319 318 319 308 309 314 313 312 315 316 317 318 319 320 321 319 316 313 306 307 304 296 283 270 255 252 245
311 309 310 315 317 313 314 319 322 324 322 318 319 318 317 317 316 316 313 311 312 310 308 309 314 313 316 322 320 321 320 313 306 309 319 310 310 297 288 275 255 253 256
304 300 302 310 316 317 317 320 320 319 316 316 317 317 314 313 313 314 312 310 310 310 309 314 315 314 321 322 321 324 324 314 324 320 310 311 304 294 288 267 266 258 255
294 293 289 299 309 313 317 317 315 311 311 314 314 312 310 312 313 312 311 312 310 311 317 315 318 318 321 324 324 326 324 325 332 328 321 318 318 318 300 281 282 262 250
290 292 294 294 298 309 311 310 307 308 311 309 307 309 310 310 310 312 312 311 313 316 312 316 318 319 326 325 325 328 325 316 327 335 345 320 329 327 334 259 308 258 269
283 285 287 289 300 308 306 304 307 308 307 306 307 308 308 311 311 312 313 316 313 313 316 319 317 321 323 323 324 329 319 316 341 347 345 3 360 356 16 43 22 62 216
277 285 280 294 303 305 304 304 306 307 305 306 307 307 309 310 309 312 317 315 312 322 320 320 318 322 319 322 329 333 320 338 336 1 17 33 38 45 36 36 37 51 102
283 289 305 298 298 302 305 303 304 304 303 308 309 309 311 310 312 314 317 317 319 321 324 321 320 325 327 339 351 6 360 349 349 41 29 355 245 52 18 42 201 189 252
280 299 296 299 298 298 300 301 304 304 306 309 310 308 309 310 312 314 315 318 317 315 316 318 322 329 332 333 344 14 15 10 0 317 355 42 44 214 92 63 335 219 206
288 289 291 300 302 300 299 298 300 303 306 303 306 307 308 310 312 311 316 312 313 321 322 320 320 326 340 347 3 1 13 20 13 18 33 280 293 342 197 259 249 284 196
282 285 288 296 308 304 298 295 298 303 303 302 305 303 306 308 307 306 308 307 310 320 323 319 321 331 338 351 360 3 3 17 25 18 17 28 17 274 286 263 252 304 246
287 284 286 294 305 305 301 300 300 298 299 300 297 301 303 303 308 311 308 306 312 322 319 329 316 338 336 4 359 353 0 0 355 32 29 28 25 24 39 60 108 161 181
283 284 294 300 300 300 300 298 297 297 298 297 297 294 298 302 306 307 300 308 307 318 312 308 314 325 345 347 349 350 360 0 347 334 357 11 23 36 33 32 45 49 44
282 293 299 299 299 296 296 295 295 294 294 291 289 292 298 301 304 300 300 297 307 319 320 311 309 308 296 341 338 345 352 4 8 7 2 358 347 345 0 23 15 36 35
290 295 297 298 295 295 296 296 294 291 287 284 284 291 299 299 301 305 301 323 320 316 318 316 315 307 315 326 331 329 341 350 2 5 11 11 1 354 359 4 5 5 9
296 298 297 293 295 296 295 294 290 286 282 282 290 298 295 298 294 295 307 326 317 327 321 314 315 311 310 308 303 312 322 330 342 352 354 357 357 351 346 343 335 337 339
295 292 291 293 293 293 292 289 285 285 288 293 292 294 293 294 287 293 303 311 319 317 315 310 310 307 304 303 303 304 308 311 315 322 328 332 332 327 325 320 314 312 311
286 288 290 291 289 288 287 287 288 291 291 290 288 296 292 303 286 270 291 309 308 306 309 313 331 330 315 302 298 298 299 302 306 311 314 313 311 306 300 296 292 292 292
287 286 284 284 284 286 282 287 289 284 285 285 296 274 264 285 290 291 291 296 299 302 306 311 314 313 310 305 302 300 299 302 304 304 304 304 302 297 291 287 286 287 288
281 281 279 279 283 279 281 289 287 278 268 281 292 283 268 273 285 296 299 297 296 299 302 305 308 312 312 311 309 307 307 306 304 302 301 299 296 293 290 292 294 295 295
279 279 280 281 280 277 278 289 288 263 266 280 272 271 269 276 285 287 287 291 295 298 300 305 308 309 308 307 306 304 304 302 302 302 300 294 292 292 294 296 298 299 299
Height
5916 5915 5913 5909 5907 5903 5901 5893 5884 5885 5886 5882 5880 5874 5873 5870 5863 5854 5847 5842 5834 5827 5821 5817 5811 5804 5799 5793 5787 5781 5775 5769 5766 5768 5759 5754 5753 5750 5749 5751 5752 5753 5759
5913 5911 5908 5906 5898 5894 5894 5888 5885 5881 5879 5876 5871 5866 5865 5861 5853 5846 5839 5831 5823 5817 5813 5807 5800 5793 5787 5780 5773 5768 5763 5755 5748 5746 5742 5734 5729 5725 5725 5729 5732 5736 5741
5909 5907 5904 5900 5896 5887 5889 5884 5882 5877 5874 5868 5864 5861 5856 5850 5842 5834 5826 5820 5813 5809 5805 5798 5791 5782 5775 5767 5760 5754 5748 5741 5732 5723 5719 5711 5704 5704 5704 5706 5710 5716 5722
5906 5902 5899 5895 5891 5886 5881 5878 5875 5869 5864 5860 5855 5850 5845 5838 5831 5822 5817 5811 5805 5801 5794 5787 5779 5771 5763 5755 5748 5739 5732 5724 5716 5707 5699 5696 5691 5689 5688 5688 5690 5696 5704
5900 5897 5893 5889 5884 5879 5874 5870 5866 5861 5856 5851 5846 5842 5835 5828 5820 5815 5807 5802 5799 5792 5784 5776 5769 5760 5751 5742 5734 5724 5716 5711 5702 5694 5688 5685 5681 5680 5678 5676 5676 5680 5688
5891 5887 5884 5881 5877 5873 5868 5863 5858 5853 5848 5842 5838 5832 5825 5818 5811 5806 5800 5795 5788 5782 5774 5766 5758 5750 5742 5734 5726 5715 5700 5691 5689 5682 5680 5677 5674 5669 5669 5668 5667 5671 5678
5882 5879 5876 5873 5869 5866 5861 5856 5850 5844 5839 5834 5827 5821 5815 5809 5803 5798 5792 5785 5778 5772 5764 5757 5749 5739 5733 5726 5718 5708 5698 5689 5681 5676 5674 5669 5665 5661 5658 5658 5659 5660 5662
5873 5870 5866 5863 5859 5855 5851 5846 5840 5835 5830 5824 5818 5812 5806 5801 5795 5789 5782 5775 5769 5761 5754 5747 5739 5731 5724 5718 5709 5700 5691 5684 5679 5672 5666 5662 5655 5653 5652 5651 5652 5653 5657
5864 5861 5857 5853 5850 5846 5842 5837 5831 5825 5820 5815 5809 5803 5797 5792 5786 5779 5773 5766 5759 5752 5744 5738 5732 5724 5718 5711 5702 5695 5685 5680 5674 5668 5661 5655 5652 5650 5648 5648 5648 5647 5650
5855 5852 5848 5844 5840 5835 5831 5826 5821 5816 5810 5804 5799 5793 5789 5782 5776 5770 5764 5757 5750 5743 5736 5731 5725 5718 5712 5704 5696 5688 5682 5676 5672 5666 5659 5653 5649 5647 5645 5644 5645 5646 5646
5845 5841 5838 5836 5831 5827 5821 5817 5812 5807 5802 5796 5790 5785 5780 5773 5767 5762 5755 5749 5741 5735 5730 5725 5719 5713 5707 5700 5692 5683 5677 5672 5667 5663 5657 5652 5650 5646 5644 5645 5645 5645 5645
5830 5827 5821 5825 5821 5817 5812 5807 5803 5798 5793 5787 5781 5776 5771 5765 5759 5753 5746 5739 5733 5729 5724 5719 5715 5709 5703 5696 5689 5681 5674 5669 5665 5662 5658 5655 5652 5650 5647 5646 5648 5648 5648
5821 5816 5815 5814 5810 5806 5801 5797 5792 5788 5783 5776 5772 5767 5762 5756 5749 5743 5738 5732 5728 5724 5719 5715 5711 5706 5699 5692 5688 5681 5673 5666 5664 5661 5659 5655 5653 5651 5650 5649 5649 5651 5651
5809 5806 5806 5803 5800 5794 5790 5786 5781 5778 5772 5765 5762 5758 5752 5746 5741 5735 5732 5726 5722 5718 5715 5711 5706 5702 5697 5690 5687 5681 5675 5670 5664 5660 5658 5657 5655 5650 5651 5649 5649 5650 5652
5797 5798 5796 5792 5786 5780 5775 5773 5769 5766 5759 5755 5752 5747 5742 5738 5733 5729 5725 5721 5717 5714 5710 5707 5703 5699 5694 5689 5685 5681 5675 5670 5664 5661 5657 5655 5654 5652 5650 5652 5651 5651 5647
5789 5787 5783 5781 5775 5768 5764 5761 5757 5752 5748 5746 5743 5738 5734 5730 5726 5723 5719 5717 5713 5710 5707 5703 5701 5697 5693 5689 5686 5682 5677 5673 5669 5666 5662 5657 5653 5651 5651 5650 5651 5652 5650
5777 5775 5773 5768 5762 5757 5755 5750 5745 5742 5740 5736 5733 5729 5725 5723 5721 5717 5714 5712 5709 5707 5704 5700 5697 5695 5692 5689 5686 5683 5679 5674 5671 5668 5666 5662 5659 5655 5652 5650 5649 5650 5650
5767 5765 5760 5753 5750 5748 5745 5740 5735 5734 5731 5728 5726 5722 5718 5718 5715 5712 5709 5708 5706 5703 5700 5697 5695 5692 5690 5688 5686 5682 5679 5675 5672 5670 5668 5665 5663 5660 5658 5656 5653 5652 5652
5755 5751 5745 5742 5739 5738 5733 5729 5726 5724 5721 5719 5717 5715 5711 5710 5708 5706 5703 5702 5701 5699 5696 5694 5692 5689 5688 5686 5685 5682 5679 5675 5672 5669 5668 5666 5664 5663 5661 5660 5658 5657 5655
5741 5736 5734 5731 5729 5726 5722 5719 5717 5714 5712 5711 5709 5707 5704 5703 5702 5701 5698 5697 5696 5695 5693 5691 5689 5687 5685 5683 5682 5681 5678 5675 5673 5670 5668 5666 5664 5663 5662 5660 5660 5659 5657
5727 5723 5722 5721 5718 5715 5713 5711 5710 5707 5706 5704 5702 5699 5697 5697 5696 5695 5695 5693 5692 5690 5689 5687 5686 5684 5682 5681 5680 5678 5675 5673 5671 5669 5667 5665 5664 5663 5662 5660 5660 5658 5657
5715 5715 5714 5710 5708 5707 5705 5704 5702 5701 5700 5698 5696 5693 5692 5692 5691 5690 5690 5690 5688 5686 5685 5683 5681 5679 5677 5677 5675 5674 5672 5670 5669 5667 5666 5664 5662 5661 5659 5658 5658 5657 5656
5707 5706 5703 5702 5701 5699 5698 5697 5695 5693 5693 5691 5689 5687 5685 5686 5686 5686 5686 5685 5683 5682 5680 5678 5675 5674 5673 5672 5671 5670 5668 5667 5665 5663 5661 5660 5659 5657 5656 5655 5655 5654 5652
5697 5697 5696 5695 5693 5691 5691 5689 5687 5687 5686 5685 5684 5681 5682 5682 5681 5680 5680 5680 5679 5677 5676 5674 5672 5670 5669 5667 5666 5664 5663 5661 5659 5658 5657 5655 5654 5652 5651 5651 5650 5649 5648
5690 5689 5688 5687 5685 5684 5683 5682 5680 5679 5679 5680 5679 5677 5677 5677 5677 5676 5676 5675 5674 5673 5671 5669 5667 5665 5663 5661 5660 5658 5657 5655 5654 5653 5651 5649 5648 5647 5646 5645 5644 5642 5641
5682 5682 5681 5680 5679 5678 5677 5675 5673 5673 5674 5675 5675 5675 5674 5674 5673 5672 5671 5670 5669 5667 5666 5664 5661 5660 5658 5656 5655 5653 5651 5649 5647 5646 5645 5644 5643 5642 5641 5639 5638 5636 5635